This is the latest recevied weather packets stored in our database for station/object K4IR. If no packets are shown the sender has not sent any weather packets the latest 10 day(s).
| Time | Temp. | Humidity | Pressure | Rain* | Wind** | Luminosity | Snow |
|---|---|---|---|---|---|---|---|
| 1788477091 | 28.33° C | 87% | 1016.8 hPa | 0 mm | - | 15 W/m² | - |
| 1788476492 | 28.33° C | 86% | 1016.7 hPa | 0 mm | - | 20 W/m² | - |
| 1788475891 | 28.89° C | 84% | 1017.1 hPa | 0 mm | - | 29 W/m² | - |
| 1788475289 | 28.89° C | 83% | 1017 hPa | 0 mm | - | 28 W/m² | - |
| 1788474687 | 29.44° C | 81% | 1017 hPa | 0 mm | - | 35 W/m² | - |
| 1788474087 | 30° C | 79% | 1017 hPa | 0 mm | - | 41 W/m² | - |
| 1788473487 | 30.56° C | 76% | 1017 hPa | 0 mm | - | 101 W/m² | - |
| 1788472886 | 30.56° C | 75% | 1016.8 hPa | 0 mm | - | 125 W/m² | - |
| 1788472286 | 30.56° C | 76% | 1017.1 hPa | 0 mm | - | 151 W/m² | - |
| 1788471680 | 31.11° C | 76% | 1016.9 hPa | 0 mm | - | 55 W/m² | - |
| 1788471076 | 31.11° C | 75% | 1017.1 hPa | 0 mm | - | 242 W/m² | - |
| 1788470473 | 31.11° C | 75% | 1017.2 hPa | 0 mm | - | 169 W/m² | - |
| 1788469871 | 31.67° C | 73% | 1016.8 hPa | 0 mm | - | 278 W/m² | - |
| 1788469268 | 31.67° C | 71% | 1017 hPa | 0 mm | - | 303 W/m² | - |
| 1788468667 | 31.67° C | 72% | 1017.1 hPa | 0 mm | - | 335 W/m² | - |
| 1788468063 | 32.22° C | 70% | 1017.1 hPa | 0 mm | - | 363 W/m² | - |
| 1788467459 | 32.22° C | 69% | 1017.3 hPa | 0 mm | - | 394 W/m² | - |
| 1788466856 | 31.67° C | 69% | 1017.3 hPa | 0 mm | - | 263 W/m² | - |
| 1788466256 | 31.67° C | 67% | 1017.5 hPa | 0 mm | - | 105 W/m² | - |
| 1788465652 | 31.67° C | 67% | 1017.5 hPa | 0 mm | - | 68 W/m² | - |
| 1788465050 | 31.67° C | 65% | 1017.3 hPa | 0 mm | - | 69 W/m² | - |
| 1788464445 | 32.22° C | 64% | 1017.9 hPa | 0 mm | - | 70 W/m² | - |
| 1788463842 | 32.22° C | 63% | 1017.7 hPa | 0 mm | - | 109 W/m² | - |
| 1788463240 | 32.22° C | 66% | 1017.7 hPa | 0 mm | - | 106 W/m² | - |
| 1788462636 | 32.22° C | 64% | 1018 hPa | 0 mm | - | 113 W/m² | - |
* Rain latest hour (hover to see other rain measurements)
** Current wind speed in m/s (hover to see current wind gust speed)